• Processing (Info)

  • MPEC 2022-S301 : 2022 SM15

    The following Minor Planet Electronic Circular may be linked-to from your own Web pages, but must not otherwise be redistributed electronically.

    A form allowing access to any MPEC is at the bottom of this page.


    Read MPEC 2022-S300 Read MPEC 2022-S302


    M.P.E.C. 2022-S301                           Issued 2022 September 28, 04:38 UT
    
         The Minor Planet Electronic Circulars contain information on unusual
             minor planets and routine data on comets.  They are published
        on behalf of Division F of the International Astronomical Union by the
              Minor Planet Center, Smithsonian Astrophysical Observatory,
                              Cambridge, MA 02138, U.S.A.
    
                 Prepared using the Tamkin Foundation Computer Network
    
                                  MPC@CFA.HARVARD.EDU
                URL https://www.minorplanetcenter.net/    ISSN 1523-6714
    
                                    2022 SM15                                
    
    
    Observations:
         K22S15M  C2022 09 25.29492221 10 49.338-22 09 49.62         21.42GVES301F52
         K22S15M* C2022 09 25.30319421 10 52.276-22 10 16.12         21.70wUES301F52
         K22S15M  C2022 09 25.31150021 10 55.269-22 10 43.10         21.15wUES301F52
         K22S15M  C2022 09 25.31975921 10 58.260-22 11 09.50         21.55GVES301F52
         K22S15M |C2022 09 26.05340 21 15 27.75 -22 49 07.4          21.4 GVES301807
         K22S15M |C2022 09 26.06264 21 15 30.98 -22 49 35.7          20.8 GVES301807
         K22S15M |C2022 09 26.07188 21 15 34.25 -22 50 03.6          21.3 GVES301807
         K22S15M ^C2022 09 26.24141921 16 36.320-22 58 56.73         21.29GVES301568
         K22S15M ^C2022 09 26.24239521 16 36.661-22 58 59.64         21.41GVES301568
         K22S15M ^C2022 09 26.24337121 16 37.003-22 59 02.60         21.41GVES301568
         K22S15M |C2022 09 28.09077 21 27 24.01 -24 24 17.7          21.4 GVES301807
         K22S15M |C2022 09 28.10001 21 27 27.07 -24 24 41.3          21.1 GVES301807
         K22S15M |C2022 09 28.10926 21 27 30.11 -24 25 05.1          21.5 GVES301807
         K22S15M KC2022 09 28.14902021 27 44.384-24 27 11.23         21.93GVES301V06
         K22S15M KC2022 09 28.15113121 27 45.061-24 27 16.70         21.49GVES301V06
         K22S15M KC2022 09 28.15324521 27 45.796-24 27 22.07         21.58GVES301V06
         K22S15M KC2022 09 28.15535621 27 46.472-24 27 27.94         21.25GVES301V06
    
    Observer details:
    568 Mauna Kea.  Observers R. Wainscoat, C. Wipper, E. Bertin.  Measurers R.
        Weryk, R. Wainscoat.  3.6-m Canada-France-Hawaii Telescope + CCD.
    807 Cerro Tololo Observatory, La Serena.  Observers T. Linder, R. Holmes, L.
        Horn.  1.00-m f/10.0 astrograph + CCD.
    F52 Pan-STARRS 2, Haleakala.  Observers J. Bulger, K. Chambers, T. Dukes, T.
        Lowe, A. Schultz, I. Smith.  Measurers S. Chastel, J. Fairlamb, M. Huber,
        Y. Ramanjooloo, R. Wainscoat, R. Weryk, K. Chambers, T. de Boer, H. Gao,
        C.-C. Lin, E. Magnier.  1.8-m Ritchey-Chretien + CCD.
    V06 Catalina Sky Survey-Kuiper.  Observer D. Rankin.  Measurers E. J.
        Christensen, D. Fay, J. B. Fazekas, D. C. Fuls, A. R. Gibbs, A. D. Grauer,
        H. Groeller, J. K. Hogan, R. A. Kowalski, S. M. Larson, G. J. Leonard, D.
        Rankin, R. L. Seaman, A. Serrano, F. C. Shelly, K. W. Wierzchos.  1.55-m
        reflector + 1K CCD.
    
    Orbital elements:
    2022 SM15                                                Earth MOID = 0.1560 AU
    Epoch 2022 Aug. 9.0 TT = JDT 2459800.5                  Bell                    
    M   0.14377              (2000.0)            P               Q                  
    n   0.19156535     Peri.  133.04722     +0.52837127     +0.84463064             
    a   2.9802870      Node   167.93620     -0.84810110     +0.52978201             
    e   0.6459038      Incl.   24.34494     -0.03934880     -0.07700718             
    P   5.15           H   22.13          G   0.15           U   9                  
    Residuals in seconds of arc
    220925 F52  0.3+  0.1-    220926 807  0.1+  0.1-    220928 807  0.1-  0.0
    220925 F52  0.2-  0.1+    220926 568  0.0   0.0     220928 V06  0.1+  0.2+
    220925 F52  0.0   0.0     220926 568  0.0   0.0     220928 V06  0.2-  0.1+
    220925 F52  0.3+  0.2+    220926 568  0.0   0.0     220928 V06  0.3+  0.2+
    220926 807  0.2+  0.2-    220928 807  0.0   0.1+    220928 V06  0.1+  0.3-
    220926 807  0.2-  0.3-    220928 807  0.1+  0.1+
    
    Ephemeris:
    2022 SM15                a,e,i = 2.98, 0.65, 24                  q = 1.0553
    Date    TT    R. A. (2000) Decl.     Delta      r    Elong.  Phase     V
    2022 08 29    17 40 05.4 +22 19 52   0.2487  1.0913   102.5    64.6    21.6
    ...
    2022 09 13    19 41 40.6 -05 11 43   0.2356  1.1573   124.9    45.5    21.0
    ...
    2022 09 21    20 42 32.6 -17 36 17   0.2770  1.2032   130.7    39.3    21.3
    ...
    2022 09 27    21 21 05.8 -23 35 22   0.3253  1.2415   131.3    37.3    21.7
    2022 09 28    21 26 52.9 -24 20 24   0.3344  1.2482   131.2    37.2    21.7
    2022 09 29    21 32 29.4 -25 01 46   0.3438  1.2549   131.1    37.0    21.8
    ...
    2022 10 05    22 02 37.3 -28 04 02   0.4051  1.2968   129.7    36.4    22.2
    ...
    2022 10 13    22 34 48.8 -29 59 41   0.4972  1.3560   126.9    36.1    22.7
    ...
    2022 10 28    23 18 40.3 -30 05 03   0.6932  1.4741   120.8    35.4    23.6
    
    M. P. C. Staff               (C) Copyright 2022 MPC           M.P.E.C. 2022-S301
    


    Read MPEC 2022-S300 Read MPEC 2022-S302


    MPEC number:

    Enter an MPEC number in one of the following forms:

    • 1997-B01 (the full form)
    • J97B01 (the packed version of the full form)
    • B01 (the abbreviated form)